DW3163 Weather Reports


time (UTC)temp
C
wind
direction
speed
KPH
gust
KPH
rain 1hr
cm
rain 24hr
cm
rain mn
cm
humidity
%
barometer
mb
20190418150902 18 0 0.0 0.0 0.00 0.00 0.00 37 1024.3
20190418150402 20 0 0.0 0.0 0.00 0.00 0.00 36 1024.3
20190418145902 20 0 0.0 0.0 0.00 0.00 0.00 36 1024.5
20190418145402 19 0 0.0 0.0 0.00 0.00 0.00 39 1024.4
20190418144902 17 0 0.0 0.0 0.00 0.00 0.00 41 1024.4
20190418144405 17 0 0.0 0.0 0.00 0.00 0.00 40 1024.4
20190418143902 17 0 0.0 0.0 0.00 0.00 0.00 39 1024.4
20190418143402 19 0 0.0 0.0 0.00 0.00 0.00 37 1024.6
20190418142905 20 0 0.0 0.0 0.00 0.00 0.00 38 1024.4
20190418142405 18 0 0.0 0.0 0.00 0.00 0.00 40 1024.4
20190418141905 16 0 0.0 0.0 0.00 0.00 0.00 44 1024.4
20190418141405 15 0 0.0 0.0 0.00 0.00 0.00 44 1024.5
20190418140902 15 0 0.0 0.0 0.00 0.00 0.00 43 1024.4
20190418140405 16 0 0.0 0.0 0.00 0.00 0.00 41 1024.3
20190418135902 17 0 0.0 0.0 0.00 0.00 0.00 40 1024.2
20190418135402 18 0 0.0 0.0 0.00 0.00 0.00 38 1024.2
20190418134902 19 0 0.0 0.0 0.00 0.00 0.00 38 1024.2
20190418134402 19 0 0.0 0.0 0.00 0.00 0.00 36 1024.4
20190418133902 21 0 0.0 0.0 0.00 0.00 0.00 35 1024.2
20190418133402 21 0 0.0 0.0 0.00 0.00 0.00 34 1024.1
20190418132905 21 0 0.0 0.0 0.00 0.00 0.00 35 1024.2
20190418132402 21 0 0.0 0.0 0.00 0.00 0.00 35 1024.2
20190418131902 21 0 0.0 0.0 0.00 0.00 0.00 35 1024.3
20190418131402 20 0 0.0 0.0 0.00 0.00 0.00 37 1024.2
20190418130902 20 0 0.0 0.0 0.00 0.00 0.00 36 1024.3
20190418130402 21 0 0.0 0.0 0.00 0.00 0.00 35 1024.1
20190418125905 20 0 0.0 0.0 0.00 0.00 0.00 38 1024.2
20190418125405 19 0 0.0 0.0 0.00 0.00 0.00 37 1024.3
20190418124902 21 0 0.0 0.0 0.00 0.00 0.00 35 1024.4
20190418124405 21 0 0.0 0.0 0.00 0.00 0.00 35 1024.4
20190418123905 22 0 0.0 0.0 0.00 0.00 0.00 35 1024.3
20190418123402 21 0 0.0 0.0 0.00 0.00 0.00 39 1024.3
20190418122902 20 0 0.0 0.0 0.00 0.00 0.00 39 1024.4
20190418122402 20 0 0.0 0.0 0.00 0.00 0.00 37 1024.4
20190418121905 20 0 0.0 0.0 0.00 0.00 0.00 37 1024.5
20190418121405 21 0 0.0 0.0 0.00 0.00 0.00 35 1024.5
20190418120902 21 0 0.0 0.0 0.00 0.00 0.00 37 1024.5
20190418120405 19 0 0.0 0.0 0.00 0.00 0.00 42 1024.5
20190418115905 18 0 0.0 0.0 0.00 0.00 0.00 41 1024.5
20190418115402 17 0 0.0 0.0 0.00 0.00 0.00 42 1024.5
20190418114902 18 0 0.0 0.0 0.00 0.00 0.00 40 1024.4
20190418114402 18 0 0.0 0.0 0.00 0.00 0.00 40 1024.5
20190418113905 18 0 0.0 0.0 0.00 0.00 0.00 42 1024.5
20190418113402 17 0 0.0 0.0 0.00 0.00 0.00 42 1024.5
20190418112905 17 0 0.0 0.0 0.00 0.00 0.00 41 1024.5
20190418112402 17 0 0.0 0.0 0.00 0.00 0.00 41 1024.4
20190418111902 18 0 0.0 0.0 0.00 0.00 0.00 38 1024.5
20190418111402 20 0 0.0 0.0 0.00 0.00 0.00 36 1024.5
20190418110905 21 0 0.0 0.0 0.00 0.00 0.00 36 1024.4
20190418110402 20 0 0.0 0.0 0.00 0.00 0.00 39 1024.5
20190418105902 19 0 0.0 0.0 0.00 0.00 0.00 38 1024.5
20190418105402 19 0 0.0 0.0 0.00 0.00 0.00 39 1024.5
20190418104902 20 0 0.0 0.0 0.00 0.00 0.00 36 1024.5
20190418104402 22 0 0.0 0.0 0.00 0.00 0.00 35 1024.5
20190418103904 22 0 0.0 0.0 0.00 0.00 0.00 36 1024.5
20190418103402 22 0 0.0 0.0 0.00 0.00 0.00 36 1024.5
20190418102902 22 0 0.0 0.0 0.00 0.00 0.00 36 1024.5
20190418102402 21 0 0.0 0.0 0.00 0.00 0.00 36 1024.5
20190418101902 21 0 0.0 0.0 0.00 0.00 0.00 36 1024.5
20190418101402 21 0 0.0 0.0 0.00 0.00 0.00 37 1024.6
20190418100902 21 0 0.0 0.0 0.00 0.00 0.00 39 1024.6
20190418100402 21 0 0.0 0.0 0.00 0.00 0.00 39 1024.5
20190418095902 21 0 0.0 0.0 0.00 0.00 0.00 37 1024.4
20190418095408 21 0 0.0 0.0 0.00 0.00 0.00 38 1024.4
20190418094902 21 0 0.0 0.0 0.00 0.00 0.00 39 1024.5
20190418094402 20 0 0.0 0.0 0.00 0.00 0.00 38 1024.5
20190418093902 21 0 0.0 0.0 0.00 0.00 0.00 37 1024.5
20190418093402 21 0 0.0 0.0 0.00 0.00 0.00 39 1024.6
20190418092902 20 0 0.0 0.0 0.00 0.00 0.00 40 1024.5
20190418092402 20 0 0.0 0.0 0.00 0.00 0.00 39 1024.4
20190418091903 20 0 0.0 0.0 0.00 0.00 0.00 41 1024.5
20190418091404 20 0 0.0 0.0 0.00 0.00 0.00 42 1024.5
20190418090902 18 0 0.0 0.0 0.00 0.00 0.00 44 1024.8
20190418090402 17 0 0.0 0.0 0.00 0.00 0.00 45 1024.7
20190418085902 17 0 0.0 0.0 0.00 0.00 0.00 43 1024.8
20190418085402 18 0 0.0 0.0 0.00 0.00 0.00 43 1024.7
20190418084902 18 0 0.0 0.0 0.00 0.00 0.00 43 1024.7
20190418084402 18 0 0.0 0.0 0.00 0.00 0.00 42 1024.6
20190418083902 18 0 0.0 0.0 0.00 0.00 0.00 42 1024.6
20190418083405 18 0 0.0 0.0 0.00 0.00 0.00 41 1024.6
20190418082902 19 0 0.0 0.0 0.00 0.00 0.00 41 1024.7
20190418082402 19 0 0.0 0.0 0.00 0.00 0.00 40 1024.6
20190418081902 20 0 0.0 0.0 0.00 0.00 0.00 41 1024.6
20190418081402 19 0 0.0 0.0 0.00 0.00 0.00 42 1024.1
20190418080902 18 0 0.0 0.0 0.00 0.00 0.00 43 1024.3
20190418080402 18 0 0.0 0.0 0.00 0.00 0.00 42 1024.1
20190418075902 18 0 0.0 0.0 0.00 0.00 0.00 42 1024.1
20190418075402 18 0 0.0 0.0 0.00 0.00 0.00 43 1024.0
20190418074902 18 0 0.0 0.0 0.00 0.00 0.00 42 1024.0
20190418074409 18 0 0.0 0.0 0.00 0.00 0.00 44 1024.0
20190418073901 17 0 0.0 0.0 0.00 0.00 0.00 43 1024.0
20190418073402 17 0 0.0 0.0 0.00 0.00 0.00 42 1023.9
20190418072902 18 0 0.0 0.0 0.00 0.00 0.00 42 1024.0
20190418072405 17 0 0.0 0.0 0.00 0.00 0.00 45 1023.9
20190418071902 17 0 0.0 0.0 0.00 0.00 0.00 43 1023.9
20190418071405 18 0 0.0 0.0 0.00 0.00 0.00 44 1024.0
20190418070902 18 0 0.0 0.0 0.00 0.00 0.00 44 1023.9
20190418070405 18 0 0.0 0.0 0.00 0.00 0.00 44 1023.8
20190418065902 18 0 0.0 0.0 0.00 0.00 0.00 45 1023.8
20190418065405 18 0 0.0 0.0 0.00 0.00 0.00 46 1023.8
20190418064902 17 0 0.0 0.0 0.00 0.00 0.00 48 1023.7
20190418064405 17 0 0.0 0.0 0.00 0.00 0.00 47 1023.7
20190418063902 17 0 0.0 0.0 0.00 0.00 0.00 49 1023.8
20190418063402 17 0 0.0 0.0 0.00 0.00 0.00 48 1023.7
20190418062902 17 0 0.0 0.0 0.00 0.00 0.00 50 1023.6
20190418062405 17 0 0.0 0.0 0.00 0.00 0.00 51 1023.6
20190418061902 17 0 0.0 0.0 0.00 0.00 0.00 54 1023.6
20190418061402 16 0 0.0 0.0 0.00 0.00 0.00 55 1023.8
20190418060902 15 0 0.0 0.0 0.00 0.00 0.00 58 1023.8
20190418060405 13 0 0.0 0.0 0.00 0.00 0.00 61 1023.7
20190418055905 12 0 0.0 0.0 0.00 0.00 0.00 63 1023.7
20190418055402 12 0 0.0 0.0 0.00 0.00 0.00 65 1023.7
20190418054908 11 0 0.0 0.0 0.00 0.00 0.00 70 1023.6
20190418054405 10 0 0.0 0.0 0.00 0.00 0.00 73 1023.6
20190418053908 8 0 0.0 0.0 0.00 0.00 0.00 77 1023.6
20190418053402 6 0 0.0 0.0 0.00 0.00 0.00 82 1023.6
20190418052902 5 0 0.0 0.0 0.00 0.00 0.00 83 1023.5
20190418052408 5 0 0.0 0.0 0.00 0.00 0.00 82 1023.6
20190418051902 6 0 0.0 0.0 0.00 0.00 0.00 81 1023.3
20190418051405 6 0 0.0 0.0 0.00 0.00 0.00 80 1023.4
20190418050902 6 0 0.0 0.0 0.00 0.00 0.00 83 1023.3
20190418050402 5 0 0.0 0.0 0.00 0.00 0.00 85 1023.2
20190418045905 3 0 0.0 0.0 0.00 0.00 0.00 86 1023.2
20190418045401 3 0 0.0 0.0 0.00 0.00 0.00 86 1023.0
20190418044902 3 0 0.0 0.0 0.00 0.00 0.00 85 1022.9
20190418044402 3 0 0.0 0.0 0.00 0.00 0.00 85 1022.8
20190418043905 3 0 0.0 0.0 0.00 0.00 0.00 86 1022.9
20190418043405 3 0 0.0 0.0 0.00 0.00 0.00 86 1022.8
20190418042902 2 0 0.0 0.0 0.00 0.00 0.00 87 1022.8
20190418042402 2 0 0.0 0.0 0.00 0.00 0.00 87 1022.8
20190418041908 2 0 0.0 0.0 0.00 0.00 0.00 87 1022.8
20190418041402 2 0 0.0 0.0 0.00 0.00 0.00 87 1022.7
20190418040902 2 0 0.0 0.0 0.00 0.00 0.00 86 1022.7
20190418040405 2 0 0.0 0.0 0.00 0.00 0.00 86 1022.7
20190418035905 2 0 0.0 0.0 0.00 0.00 0.00 86 1022.6
20190418035402 2 0 0.0 0.0 0.00 0.00 0.00 86 1022.5
20190418034902 2 0 0.0 0.0 0.00 0.00 0.00 86 1022.6
20190418034403 2 0 0.0 0.0 0.00 0.00 0.00 86 1022.6
20190418033901 2 0 0.0 0.0 0.00 0.00 0.00 86 1022.5
20190418033402 2 0 0.0 0.0 0.00 0.00 0.00 85 1022.5
20190418032904 2 0 0.0 0.0 0.00 0.00 0.00 85 1022.5
20190418032402 2 0 0.0 0.0 0.00 0.00 0.00 85 1022.4
20190418031901 2 0 0.0 0.0 0.00 0.00 0.00 84 1022.3
20190418031405 2 0 0.0 0.0 0.00 0.00 0.00 84 1022.3
20190418030902 2 0 0.0 0.0 0.00 0.00 0.00 84 1022.4
20190418030401 2 0 0.0 0.0 0.00 0.00 0.00 84 1022.4
20190418025901 2 0 0.0 0.0 0.00 0.00 0.00 83 1022.4
20190418025402 3 0 0.0 0.0 0.00 0.00 0.00 83 1022.3
20190418024905 3 0 0.0 0.0 0.00 0.00 0.00 82 1022.4
20190418024402 3 0 0.0 0.0 0.00 0.00 0.00 82 1022.3
20190418023902 3 0 0.0 0.0 0.00 0.00 0.00 82 1022.3
20190418023402 3 0 0.0 0.0 0.00 0.00 0.00 81 1022.6
20190418022902 4 0 0.0 0.0 0.00 0.00 0.00 81 1022.6
20190418022402 5 0 0.0 0.0 0.00 0.00 0.00 81 1022.5
20190418021902 5 0 0.0 0.0 0.00 0.00 0.00 81 1022.6
20190418021402 5 0 0.0 0.0 0.00 0.00 0.00 81 1022.6
20190418020902 5 0 0.0 0.0 0.00 0.00 0.00 81 1022.4
20190418020405 5 0 0.0 0.0 0.00 0.00 0.00 81 1022.5
20190418015902 5 0 0.0 0.0 0.00 0.00 0.00 81 1022.5
20190418015402 5 0 0.0 0.0 0.00 0.00 0.00 81 1022.4
20190418014902 5 0 0.0 0.0 0.00 0.00 0.00 81 1022.5
20190418014402 5 0 0.0 0.0 0.00 0.00 0.00 81 1022.4
20190418013901 5 0 0.0 0.0 0.00 0.00 0.00 81 1022.4
20190418013402 5 0 0.0 0.0 0.00 0.00 0.00 81 1022.6
20190418012908 5 0 0.0 0.0 0.00 0.00 0.00 81 1022.6
20190418012402 5 0 0.0 0.0 0.00 0.00 0.00 81 1022.5
20190418011902 5 0 0.0 0.0 0.00 0.00 0.00 81 1022.6
20190418011402 5 0 0.0 0.0 0.00 0.00 0.00 80 1022.5
20190418010901 5 0 0.0 0.0 0.00 0.00 0.00 80 1022.4
20190418010405 6 0 0.0 0.0 0.00 0.00 0.00 80 1022.4
20190418005902 6 0 0.0 0.0 0.00 0.00 0.00 80 1022.5
20190418005401 6 0 0.0 0.0 0.00 0.00 0.00 79 1022.4
20190418004902 6 0 0.0 0.0 0.00 0.00 0.00 79 1022.5
20190418004404 6 0 0.0 0.0 0.00 0.00 0.00 79 1022.4
20190418003902 6 0 0.0 0.0 0.00 0.00 0.00 79 1022.4
20190418003405 6 0 0.0 0.0 0.00 0.00 0.00 79 1022.4
20190418002905 6 0 0.0 0.0 0.00 0.00 0.00 79 1022.4
20190418002401 6 0 0.0 0.0 0.00 0.00 0.00 78 1022.4
20190418001902 6 0 0.0 0.0 0.00 0.00 0.00 78 1022.4
20190418001405 6 0 0.0 0.0 0.00 0.00 0.00 78 1022.4
20190418000902 6 0 0.0 0.0 0.00 0.00 0.00 78 1022.6
20190418000404 6 0 0.0 0.0 0.00 0.00 0.00 78 1022.4
20190417235902 6 0 0.0 0.0 0.00 0.00 0.00 78 1022.5
20190417235402 6 0 0.0 0.0 0.00 0.00 0.00 79 1022.4
20190417234905 6 0 0.0 0.0 0.00 0.00 0.00 78 1022.5
20190417234402 6 0 0.0 0.0 0.00 0.00 0.00 78 1022.5
20190417233901 6 0 0.0 0.0 0.00 0.00 0.00 78 1022.6
20190417233408 6 0 0.0 0.0 0.00 0.00 0.00 78 1022.6
20190417232908 6 0 0.0 0.0 0.00 0.00 0.00 78 1022.6
20190417232402 6 0 0.0 0.0 0.00 0.00 0.00 78 1022.6
20190417231904 6 0 0.0 0.0 0.00 0.00 0.00 78 1022.5
20190417231405 6 0 0.0 0.0 0.00 0.00 0.00 78 1022.5
20190417230902 6 0 0.0 0.0 0.00 0.00 0.00 78 1022.4
20190417225857 6 0 0.0 0.0 0.00 0.00 0.00 78 1022.3
20190417225357 6 0 0.0 0.0 0.00 0.00 0.00 78 1022.2
20190417224857 6 0 0.0 0.0 0.00 0.00 0.00 77 1022.3
20190417224357 6 0 0.0 0.0 0.00 0.00 0.00 77 1022.2
20190417223857 6 0 0.0 0.0 0.00 0.00 0.00 77 1022.0
20190417223357 6 0 0.0 0.0 0.00 0.00 0.00 76 1022.0
20190417222857 6 0 0.0 0.0 0.00 0.00 0.00 76 1022.0
20190417222357 6 0 0.0 0.0 0.00 0.00 0.00 76 1021.9
20190417221900 6 0 0.0 0.0 0.00 0.00 0.00 76 1021.9
20190417221400 6 0 0.0 0.0 0.00 0.00 0.00 76 1021.9
20190417220857 6 0 0.0 0.0 0.00 0.00 0.00 76 1021.9
20190417220357 6 0 0.0 0.0 0.00 0.00 0.00 76 1021.9
20190417215857 6 0 0.0 0.0 0.00 0.00 0.00 76 1021.9
20190417215357 6 0 0.0 0.0 0.00 0.00 0.00 77 1021.9
20190417214857 6 0 0.0 0.0 0.00 0.00 0.00 77 1021.8
20190417214357 6 0 0.0 0.0 0.00 0.00 0.00 77 1021.8
20190417213857 6 0 0.0 0.0 0.00 0.00 0.00 77 1021.8
20190417213400 6 0 0.0 0.0 0.00 0.00 0.00 76 1021.7
20190417212900 6 0 0.0 0.0 0.00 0.00 0.00 75 1021.7
20190417212357 6 0 0.0 0.0 0.00 0.00 0.00 74 1021.7
20190417211900 6 0 0.0 0.0 0.00 0.00 0.00 74 1021.6
20190417211357 6 0 0.0 0.0 0.00 0.00 0.00 74 1021.6
20190417210857 7 0 0.0 0.0 0.00 0.00 0.00 74 1021.6
20190417210357 7 0 0.0 0.0 0.00 0.00 0.00 74 1021.6
20190417205900 7 0 0.0 0.0 0.00 0.00 0.00 75 1021.6
20190417205357 6 0 0.0 0.0 0.00 0.00 0.00 75 1021.7
20190417204857 6 0 0.0 0.0 0.00 0.00 0.00 76 1021.6
20190417204400 6 0 0.0 0.0 0.00 0.00 0.00 76 1021.8
20190417203900 6 0 0.0 0.0 0.00 0.00 0.00 76 1021.7
20190417203357 6 0 0.0 0.0 0.00 0.00 0.00 77 1021.8
20190417202857 6 0 0.0 0.0 0.00 0.00 0.00 78 1021.9
20190417202357 5 0 0.0 0.0 0.00 0.00 0.00 78 1021.7
20190417201857 5 0 0.0 0.0 0.00 0.00 0.00 78 1021.8
20190417201357 5 0 0.0 0.0 0.00 0.00 0.00 77 1021.8
20190417200857 5 0 0.0 0.0 0.00 0.00 0.00 77 1021.7
20190417200357 5 0 0.0 0.0 0.00 0.00 0.00 77 1021.8
20190417195857 5 0 0.0 0.0 0.00 0.00 0.00 76 1021.6
20190417195357 5 0 0.0 0.0 0.00 0.00 0.00 75 1021.6
20190417194857 5 0 0.0 0.0 0.00 0.00 0.00 74 1021.8
20190417194357 5 0 0.0 0.0 0.00 0.00 0.00 74 1021.7
20190417193857 6 0 0.0 0.0 0.00 0.00 0.00 73 1021.6
20190417193400 6 0 0.0 0.0 0.00 0.00 0.00 72 1021.6
20190417192857 6 0 0.0 0.0 0.00 0.00 0.00 71 1021.6
20190417192400 6 0 0.0 0.0 0.00 0.00 0.00 70 1021.6
20190417191857 6 0 0.0 0.0 0.00 0.00 0.00 69 1021.5
20190417191357 7 0 0.0 0.0 0.00 0.00 0.00 68 1021.6
20190417190857 7 0 0.0 0.0 0.00 0.00 0.00 67 1021.6
20190417190357 8 0 0.0 0.0 0.00 0.00 0.00 66 1021.6
20190417185857 8 0 0.0 0.0 0.00 0.00 0.00 66 1021.5
20190417185357 8 0 0.0 0.0 0.00 0.00 0.00 66 1021.2
20190417184857 8 0 0.0 0.0 0.00 0.00 0.00 65 1021.1
20190417184357 8 0 0.0 0.0 0.00 0.00 0.00 64 1021.1
20190417183900 8 0 0.0 0.0 0.00 0.00 0.00 63 1021.0
20190417183400 8 0 0.0 0.0 0.00 0.00 0.00 63 1021.0
20190417182857 9 0 0.0 0.0 0.00 0.00 0.00 63 1020.9
20190417182400 9 0 0.0 0.0 0.00 0.00 0.00 62 1020.8
20190417181857 9 0 0.0 0.0 0.00 0.00 0.00 62 1020.7
20190417181357 9 0 0.0 0.0 0.00 0.00 0.00 60 1020.7
20190417180900 10 0 0.0 0.0 0.00 0.00 0.00 60 1020.7
20190417180357 10 0 0.0 0.0 0.00 0.00 0.00 60 1020.6
20190417175900 10 0 0.0 0.0 0.00 0.00 0.00 59 1020.6
20190417175400 10 0 0.0 0.0 0.00 0.00 0.00 59 1020.6
20190417174857 10 0 0.0 0.0 0.00 0.00 0.00 58 1020.6
20190417174400 10 0 0.0 0.0 0.00 0.00 0.00 58 1020.4
20190417173857 10 0 0.0 0.0 0.00 0.00 0.00 58 1020.2
20190417173357 10 0 0.0 0.0 0.00 0.00 0.00 58 1020.3
20190417172900 11 0 0.0 0.0 0.00 0.00 0.00 57 1020.3
20190417172357 11 0 0.0 0.0 0.00 0.00 0.00 57 1020.1
20190417171900 11 0 0.0 0.0 0.00 0.00 0.00 56 1020.2
20190417171357 11 0 0.0 0.0 0.00 0.00 0.00 56 1019.8
20190417170857 11 0 0.0 0.0 0.00 0.00 0.00 56 1019.8
20190417170357 11 0 0.0 0.0 0.00 0.00 0.00 55 1019.6
20190417165857 11 0 0.0 0.0 0.00 0.00 0.00 55 1019.7
20190417165357 11 0 0.0 0.0 0.00 0.00 0.00 54 1019.8
20190417164857 12 0 0.0 0.0 0.00 0.00 0.00 53 1019.6
20190417164400 12 0 0.0 0.0 0.00 0.00 0.00 52 1019.6
20190417163857 13 0 0.0 0.0 0.00 0.00 0.00 51 1019.5
20190417163400 13 0 0.0 0.0 0.00 0.00 0.00 52 1019.7
20190417162858 13 0 0.0 0.0 0.00 0.00 0.00 52 1019.7
20190417162357 12 0 0.0 0.0 0.00 0.00 0.00 52 1019.7
20190417161857 12 0 0.0 0.0 0.00 0.00 0.00 52 1019.5
20190417161403 12 0 0.0 0.0 0.00 0.00 0.00 51 1019.4
20190417160857 12 0 0.0 0.0 0.00 0.00 0.00 51 1019.4
20190417160357 12 0 0.0 0.0 0.00 0.00 0.00 51 1019.6
20190417155857 12 0 0.0 0.0 0.00 0.00 0.00 51 1019.6
20190417155357 12 0 0.0 0.0 0.00 0.00 0.00 50 1019.4
20190417154857 12 0 0.0 0.0 0.00 0.00 0.00 49 1019.6
20190417154400 12 0 0.0 0.0 0.00 0.00 0.00 49 1019.4
20190417153857 13 0 0.0 0.0 0.00 0.00 0.00 47 1019.5
20190417153357 14 0 0.0 0.0 0.00 0.00 0.00 44 1019.4
20190417152900 16 0 0.0 0.0 0.00 0.00 0.00 42 1019.4
20190417152357 16 0 0.0 0.0 0.00 0.00 0.00 42 1019.5
20190417151900 15 0 0.0 0.0 0.00 0.00 0.00 44 1019.3
20190417151400 14 0 0.0 0.0 0.00 0.00 0.00 46 1019.2